Погода во Влёре

Албания     40°27′32″N   19°28′57″E
темп.,
°C
ветер,
м/с
пор.,
м/с
влажн.,
%
обл.,
%
осадки,
мм/ч
давл.,
гПа
погр.,
м
13 апреля, вт
вт1323:00+13ю1268100 0.0 1021114
02:00+12ю347194 0.0 1020198
05:00+12ю3463100 0.0 1019192
08:00+13ююв3562100 0.0 1019239
11:00+16ююв454989 0.1 1018624
14:00+16ююз696027 0.6 1017966
17:00+16ю7116153 1.1 1016957
20:00+12ю588058 2.8 1016250
14 апреля, ср
ср1423:00+11юз34820 2.1 1017230
02:00+10с238799 4.3 1018166
05:00+10с4784100 2.2 1018596
08:00+11сз577967 4.0 1019627
11:00+12сз6666100 0.4 10191313
14:00+11зсз446654 0.6 10201019
17:00+11ссз446774 0.1 1018918
20:00+10с347033 0.1 1019460
15 апреля, чт
чт1523:00+8св127114 0.0 1019230
02:00+7в22733 0.0 1018111
05:00+7в22758 0.0 1018145
08:00+9всв226828 0.0 1019225
11:00+12сз23535 0.0 10191201
14:00+13зсз4455100 0.0 10181076
17:00+12сз4457100 0.0 1018906
20:00
16 апреля, пт
пт1623:00+9всв3469100 0.0 1018163
02:00+8всв337299 0.0 1018114
05:00+8всв337485 0.0 101781
08:00+10св3368100 0.0 1016195
11:00+14ссв2253100 0.0 1015663
14:00+13зюз3259100 0.3 1015558
17:00+11ссв3478100 0.4 1013342
20:00+12ссв1266100 0.1 1014170
17 апреля, сб
сб1723:00+10св3489100 0.0 1011142
02:00+10св4583100 0.1 1009123
05:00+10св3481100 0.0 1007106
08:00+12св3477100 0.1 1006170
11:00+14ссв2270100 0.0 1006197
14:00+14ссз1183100 0.8 1006153
17:00+12с4492100 1.6 1006201
20:00+10с4696100 3.0 1008341